FW9243 Weather Reports


time (UTC)temp
F
wind
direction
speed
knots
gust
knots
rain 1hr
in
rain 24hr
in
rain mn
in
humidity
%
barometer
mb
20260510225602 53 223 0.9 0.9 0.00 0.07 0.00 93 1009.9
20260510225323 53 206 0.0 1.7 0.00 0.07 0.00 93 1009.8
20260510224602 53 63 0.0 1.7 0.00 0.07 0.00 93 1009.8
20260510224548 53 28 0.9 1.7 0.00 0.07 0.00 93 1009.8
20260510224537 53 51 0.0 1.7 0.00 0.27 0.00 100 1010.3
20260510223602 53 45 0.9 1.7 0.00 0.07 0.00 93 1009.9
20260510223102 53 223 0.0 0.9 0.00 0.07 0.00 93 1009.8
20260510223034 53 0 0.0 0.0 0.00 0.27 0.00 100 1010.4
20260510222606 53 269 0.0 0.9 0.00 0.07 0.00 93 1009.8
20260510222102 53 206 0.0 0.9 0.00 0.07 0.00 93 1009.8
20260510221602 53 56 0.9 0.9 0.00 0.07 0.00 93 1009.8
20260510221540 53 0 0.0 0.9 0.00 0.27 0.00 100 1010.3
20260510221103 53 1 0.9 0.9 0.01 0.07 0.00 93 1009.9
20260510220825 53 45 0.0 0.9 0.01 0.07 0.00 93 1009.9
20260510220041 53 213 0.9 1.7 0.01 0.07 0.00 93 1010.0
20260510220037 53 0 0.0 0.9 0.00 0.27 0.00 100 1010.4
20260510215538 53 38 0.9 1.7 0.02 0.06 0.07 93 1009.9
20260510215300 53 234 0.0 0.9 0.02 0.06 0.07 93 1010.1
20260510214805 53 89 0.0 0.9 0.02 0.06 0.07 93 1010.0
20260510214541 53 0 0.0 1.7 0.00 0.27 0.27 100 1010.6
20260510214038 53 89 0.0 0.9 0.02 0.06 0.07 93 1010.1
20260510213537 53 135 0.0 0.9 0.02 0.06 0.07 93 1010.0
20260510213038 53 135 0.0 0.9 0.02 0.06 0.07 92 1010.0
20260510213035 53 0 0.9 1.7 0.00 0.27 0.27 100 1010.5
20260510212536 54 89 0.9 1.7 0.02 0.06 0.07 92 1010.0
20260510212037 54 109 0.9 1.7 0.02 0.06 0.06 92 1009.9
20260510211536 54 72 0.9 0.9 0.02 0.06 0.06 92 1010.0
20260510211037 54 89 0.0 0.9 0.01 0.06 0.06 92 1010.0
20260510210536 54 269 0.0 0.9 0.01 0.06 0.06 92 1010.1
20260510210042 53 0 0.0 0.9 0.00 0.27 0.27 100 1010.7
20260510210038 54 223 0.9 0.9 0.01 0.06 0.05 92 1010.1
20260510205754 54 223 0.9 1.7 0.01 0.05 0.05 92 1010.0
20260510205038 54 89 0.9 1.7 0.01 0.05 0.05 92 1010.0
20260510204546 54 0 0.0 1.7 0.00 0.27 0.27 100 1010.5
20260510204536 54 45 0.9 1.7 0.01 0.05 0.05 92 1009.9
20260510204037 54 1 0.9 1.7 0.01 0.05 0.05 92 1010.0
20260510203536 54 135 0.9 0.9 0.01 0.05 0.05 92 1009.9
20260510203037 54 0 0.0 0.9 0.00 0.27 0.27 100 1010.2
20260510202535 54 1 0.9 1.7 0.02 0.05 0.05 91 1009.7
20260510202257 55 45 0.9 1.7 0.02 0.05 0.05 91 1009.6
20260510201535 55 45 0.9 1.7 0.03 0.05 0.05 91 1009.5
20260510201533 54 64 0.9 1.7 0.00 0.27 0.27 100 1009.9
20260510201036 55 45 0.9 1.7 0.04 0.05 0.05 91 1009.5
20260510200534 55 16 1.7 1.7 0.04 0.05 0.05 91 1009.5
20260510200037 55 331 0.9 1.7 0.04 0.05 0.05 91 1009.5
20260510195532 55 45 0.9 1.7 0.04 0.01 0.04 91 1009.4
20260510195252 55 56 1.7 1.7 0.04 0.01 0.04 91 1009.4
20260510194547 55 61 0.0 1.7 0.00 0.27 0.27 100 1009.9
20260510194531 55 135 0.9 2.6 0.04 0.01 0.04 90 1009.4
20260510194030 55 51 1.7 2.6 0.04 0.01 0.04 89 1009.3
20260510193722 55 54 1.7 2.6 0.04 0.01 0.04 89 1009.4
20260510193041 55 45 1.7 2.6 0.00 0.27 0.27 100 1009.8
20260510193002 56 39 1.7 2.6 0.04 0.01 0.04 88 1009.4
20260510192727 56 45 0.0 1.7 0.03 0.01 0.03 88 1009.4
20260510192002 56 68 0.9 2.6 0.02 0.01 0.02 87 1009.5
20260510191539 58 51 0.9 1.7 0.00 0.27 0.27 100 1010.0
20260510191503 56 45 1.7 2.6 0.02 0.01 0.02 86 1009.4
20260510191003 56 17 1.7 2.6 0.01 0.01 0.01 85 1009.5
20260510190503 57 135 0.9 2.6 0.01 0.01 0.00 84 1009.5
20260510190047 58 144 0.0 0.9 0.00 0.27 0.27 100 1009.9
20260510190003 57 130 1.7 2.6 0.00 0.00 0.00 84 1009.4
20260510185502 57 135 0.0 1.7 0.00 0.00 0.00 84 1009.3
20260510185003 57 45 0.0 1.7 0.00 0.01 0.00 84 1009.3
20260510184534 58 232 0.9 0.9 0.00 0.27 0.27 100 1009.7
20260510184501 57 28 0.9 2.6 0.00 0.01 0.00 84 1009.2
20260510184002 57 13 0.9 2.6 0.00 0.01 0.00 84 1009.1
20260510183503 57 20 0.9 4.3 0.00 0.01 0.00 84 1009.1
20260510183036 58 0 0.0 2.6 0.00 0.27 0.27 100 1009.6
20260510183002 57 213 0.9 4.3 0.00 0.02 0.00 85 1009.1
20260510182502 58 0 1.7 3.5 0.00 0.02 0.00 85 1009.0
20260510182002 58 312 1.7 3.5 0.00 0.02 0.00 86 1008.9
20260510181535 58 0 0.0 2.6 0.00 0.27 0.27 100 1009.5
20260510181502 58 241 0.9 3.5 0.00 0.02 0.00 86 1008.9
20260510181451 58 258 1.7 2.6 0.00 0.03 0.00 86 1008.8
20260510180502 58 231 1.7 2.6 0.00 0.04 0.00 86 1008.8
20260510180222 59 45 0.9 1.7 0.00 0.04 0.00 85 1008.6
20260510180039 58 221 0.9 1.7 0.00 0.27 0.27 100 1009.1
20260510175502 58 241 0.9 3.5 0.00 0.04 0.00 85 1008.5
20260510175002 58 63 0.9 4.3 0.00 0.05 0.00 84 1008.4
20260510174543 59 28 3.5 3.5 0.00 0.27 0.27 100 1008.8
20260510174503 59 35 3.5 4.3 0.00 0.06 0.00 83 1008.2
20260510174002 59 41 1.7 4.3 0.00 0.07 0.00 83 1008.3
20260510173502 59 25 1.7 4.3 0.00 0.09 0.00 82 1008.3
20260510173037 59 51 0.9 2.6 0.00 0.27 0.27 100 1008.9
20260510173003 59 59 1.7 4.3 0.00 0.09 0.00 80 1008.4
20260510172502 59 21 2.6 4.3 0.00 0.14 0.00 80 1008.3
20260510172227 59 24 2.6 6.1 0.00 0.14 0.00 80 1008.2
20260510171940 59 39 4.3 6.1 0.00 0.14 0.00 79 1008.2
20260510171536 60 59 4.3 7.0 0.00 0.27 0.27 78 1008.8
20260510171207 60 39 3.5 6.1 0.00 0.14 0.00 77 1008.3
20260510170442 61 28 2.6 5.2 0.00 0.14 0.00 76 1008.2
20260510170200 62 59 3.5 5.2 0.00 0.14 0.00 75 1008.2
20260510170040 61 31 2.6 3.5 0.00 0.27 0.27 92 1008.7
20260510165442 62 59 1.7 2.6 0.00 0.14 0.00 74 1008.2
20260510164944 62 76 1.7 3.5 0.00 0.14 0.00 74 1008.3
20260510164541 62 74 1.7 2.6 0.00 0.27 0.27 72 1008.8
20260510164431 62 104 1.7 3.5 0.00 0.14 0.00 73 1008.2
20260510163932 62 76 1.7 2.6 0.00 0.14 0.00 74 1008.2
20260510163430 62 89 1.7 2.6 0.00 0.14 0.00 73 1008.2
20260510163038 62 0 0.9 2.6 0.00 0.27 0.27 72 1008.6
20260510162932 62 76 1.7 2.6 0.00 0.14 0.00 73 1008.1
20260510162430 62 110 0.9 3.5 0.00 0.14 0.00 73 1008.1
20260510161931 62 178 0.9 3.5 0.00 0.14 0.00 73 1008.1
20260510161538 61 215 1.7 3.5 0.00 0.27 0.27 77 1008.5
20260510161430 62 171 1.7 4.3 0.00 0.14 0.00 74 1008.0
20260510160931 61 152 1.7 4.3 0.00 0.14 0.00 74 1008.0
20260510160430 61 206 0.9 3.5 0.00 0.14 0.00 76 1008.0
20260510160038 61 146 0.9 2.6 0.00 0.27 0.27 77 1008.5
20260510155930 61 135 1.7 3.5 0.00 0.14 0.00 75 1008.0
20260510155430 61 178 0.9 3.5 0.00 0.14 0.00 77 1008.0
20260510154930 61 223 0.9 3.5 0.00 0.14 0.00 76 1008.0
20260510154652 61 234 1.7 3.5 0.00 0.14 0.00 77 1007.9
20260510154536 61 209 0.9 1.7 0.00 0.27 0.27 77 1008.4
20260510153930 61 206 1.7 3.5 0.00 0.14 0.00 78 1007.9
20260510153429 61 202 0.9 2.6 0.00 0.14 0.00 75 1008.1
20260510153150 62 51 0.9 2.6 0.00 0.14 0.00 73 1008.0
20260510153033 61 178 0.9 1.7 0.00 0.27 0.27 72 1008.5
20260510152429 62 269 0.9 2.6 0.00 0.14 0.00 73 1008.1
20260510151929 63 1 0.9 4.3 0.00 0.14 0.00 69 1008.1
20260510151545 64 221 0.9 6.1 0.00 0.27 0.27 69 1008.6
20260510151429 64 241 1.7 4.3 0.00 0.14 0.00 68 1008.0
20260510150929 65 237 3.5 4.3 0.00 0.14 0.00 64 1007.8
20260510150428 65 56 0.9 5.2 0.00 0.14 0.00 64 1007.6
20260510150046 66 0 2.6 3.5 0.00 0.27 0.27 60 1008.1
20260510145929 66 27 2.6 5.2 0.00 0.14 0.00 60 1007.7
20260510145428 67 48 1.7 4.3 0.00 0.14 0.00 61 1007.9
20260510144929 67 327 1.7 4.3 0.00 0.14 0.00 60 1007.9
20260510144555 65 51 0.9 2.6 0.00 0.27 0.27 61 1008.2
20260510144428 66 1 0.9 2.6 0.00 0.14 0.00 60 1007.9
20260510144413 66 89 0.9 2.6 0.00 0.14 0.00 61 1007.9
20260510143428 66 89 1.7 2.6 0.00 0.14 0.00 61 1008.0
20260510143036 65 0 0.0 2.6 0.00 0.27 0.27 62 1008.5
20260510142929 65 117 0.9 1.7 0.00 0.14 0.00 63 1008.0
20260510142648 65 296 1.7 1.7 0.00 0.14 0.00 61 1008.0
20260510141929 65 89 0.9 3.5 0.00 0.14 0.00 61 1008.0
20260510141537 64 137 0.0 1.7 0.00 0.27 0.27 80 1008.6
20260510141427 64 178 0.9 3.5 0.00 0.14 0.00 60 1008.1
20260510140928 65 178 0.9 2.6 0.00 0.14 0.00 60 1008.1
20260510140427 65 213 0.9 2.6 0.00 0.14 0.00 58 1008.0
20260510140036 64 265 1.7 2.6 0.00 0.27 0.27 57 1008.5
20260510135928 65 269 0.9 3.5 0.00 0.14 0.00 58 1008.1
20260510135427 65 248 1.7 3.5 0.00 0.14 0.00 56 1008.0
20260510134928 66 223 1.7 3.5 0.00 0.14 0.00 55 1008.0
20260510134547 66 221 0.9 2.6 0.00 0.27 0.27 78 1008.5
20260510134426 66 197 1.7 4.3 0.00 0.14 0.00 58 1008.0
20260510134148 66 178 1.7 4.3 0.00 0.14 0.00 57 1008.0
20260510133427 66 206 2.6 4.3 0.00 0.14 0.00 59 1007.9
20260510133045 66 205 1.7 2.6 0.00 0.27 0.27 59 1008.5
20260510132927 66 233 2.6 4.3 0.00 0.14 0.00 62 1008.0
20260510132426 66 234 1.7 6.1 0.00 0.14 0.00 64 1008.0
20260510131927 65 223 1.7 6.1 0.00 0.14 0.00 61 1007.9
20260510131542 65 239 0.9 3.5 0.00 0.27 0.27 61 1008.4
20260510131426 65 206 1.7 6.1 0.00 0.14 0.00 63 1007.9
20260510130925 65 235 2.6 6.1 0.00 0.14 0.00 65 1007.9
20260510130915 64 1 0.9 3.5 0.00 0.14 0.00 65 1007.8
20260510130039 62 221 0.9 3.5 0.00 0.27 0.27 85 1008.3
20260510125927 64 178 1.7 3.5 0.00 0.14 0.00 65 1007.8
20260510125426 63 173 1.7 3.5 0.00 0.14 0.00 66 1007.9
20260510125155 63 230 1.7 3.5 0.00 0.14 0.00 69 1008.0
20260510124537 62 232 0.9 1.7 0.00 0.27 0.27 67 1008.5
20260510124426 62 254 1.7 2.6 0.00 0.14 0.00 68 1008.0
20260510123926 62 206 1.7 2.6 0.00 0.14 0.00 68 1008.0
20260510123642 62 314 0.9 2.6 0.00 0.14 0.00 68 1008.0
20260510123035 62 227 1.7 1.7 0.00 0.27 0.27 68 1008.5
20260510122926 62 209 1.7 4.3 0.00 0.14 0.00 68 1008.0
20260510122425 62 193 1.7 4.3 0.00 0.14 0.00 68 1007.9
20260510121926 62 247 1.7 2.6 0.00 0.14 0.00 67 1008.0
20260510121537 62 188 1.7 3.5 0.00 0.27 0.27 66 1008.5
20260510121424 62 206 1.7 3.5 0.00 0.14 0.00 67 1007.9
20260510120926 62 213 1.7 3.5 0.00 0.14 0.00 67 1008.0
20260510120424 62 168 1.7 5.2 0.00 0.14 0.00 67 1007.9
20260510120038 62 221 0.9 3.5 0.00 0.27 0.27 86 1008.4
20260510115926 62 210 0.9 5.2 0.00 0.14 0.00 66 1007.9
20260510115424 62 193 0.9 2.6 0.00 0.14 0.00 67 1007.9
20260510114928 63 197 0.9 2.6 0.00 0.14 0.00 71 1007.9
20260510114601 62 0 0.0 1.7 0.00 0.27 0.27 89 1008.5
20260510114424 63 234 0.9 2.6 0.00 0.14 0.00 71 1007.9
20260510114150 63 336 1.7 2.6 0.00 0.14 0.00 71 1007.9
20260510113423 63 1 0.9 1.7 0.00 0.14 0.00 70 1007.9
20260510113051 62 131 0.9 1.7 0.00 0.27 0.27 89 1008.4
20260510112925 63 178 0.9 1.7 0.00 0.14 0.00 70 1007.9
20260510112423 62 241 0.9 1.7 0.00 0.14 0.00 69 1007.9
20260510111924 62 16 0.9 1.7 0.00 0.14 0.00 69 1007.9
20260510111535 61 137 0.9 4.3 0.00 0.27 0.27 89 1008.4
20260510111423 62 135 0.9 5.2 0.00 0.14 0.00 70 1007.9
20260510110924 62 168 0.9 5.2 0.00 0.14 0.00 70 1007.9
20260510110423 62 269 0.9 7.8 0.00 0.14 0.00 70 1007.8
20260510110039 61 221 1.7 4.3 0.00 0.27 0.27 70 1008.3
20260510105925 61 351 1.7 7.8 0.00 0.14 0.00 70 1007.9
20260510105903 61 196 3.5 4.3 0.00 0.14 0.00 69 1007.9
20260510105145 61 63 0.9 4.3 0.00 0.14 0.00 70 1007.9
20260510104547 61 265 0.9 1.7 0.00 0.27 0.27 90 1008.4
20260510104422 62 148 1.7 3.5 0.00 0.14 0.00 70 1007.9
20260510103923 62 269 1.7 4.3 0.00 0.14 0.00 69 1007.8
20260510103423 62 314 1.7 5.2 0.00 0.14 0.00 69 1007.9
20260510103039 62 221 1.7 1.7 0.00 0.27 0.27 70 1008.3
20260510102923 62 171 2.6 5.2 0.00 0.14 0.00 69 1007.8
20260510102422 62 234 1.7 2.6 0.00 0.14 0.00 70 1007.8
20260510101924 62 197 0.9 3.5 0.00 0.14 0.00 71 1007.7
20260510101537 61 196 0.9 2.6 0.00 0.27 0.27 73 1008.2
20260510101422 62 197 1.7 3.5 0.00 0.14 0.00 71 1007.8
20260510100923 62 341 1.7 5.2 0.00 0.14 0.00 71 1007.7
20260510100421 62 269 1.7 5.2 0.00 0.14 0.00 70 1007.7
20260510100055 61 178 0.9 2.6 0.00 0.27 0.27 73 1008.2
20260510095923 62 233 1.7 5.2 0.00 0.14 0.00 71 1007.7
20260510095422 62 220 0.9 4.3 0.00 0.14 0.00 70 1007.8
20260510094922 62 28 2.6 4.3 0.00 0.14 0.00 70 1007.6
20260510094550 60 221 0.9 1.7 0.00 0.27 0.27 73 1008.1
20260510094422 61 223 0.9 3.5 0.00 0.14 0.00 73 1007.5
20260510093924 61 219 1.7 6.1 0.00 0.14 0.00 72 1007.6
20260510093649 60 141 1.7 6.1 0.00 0.14 0.00 73 1007.6
20260510093035 59 93 0.9 3.5 0.00 0.27 0.27 73 1008.0
20260510092922 60 223 0.9 5.2 0.00 0.14 0.00 74 1007.5
20260510092421 60 173 1.7 5.2 0.00 0.14 0.00 74 1007.5
20260510091922 60 135 1.7 4.3 0.00 0.14 0.00 74 1007.5
20260510091539 59 221 1.7 4.3 0.00 0.27 0.27 95 1007.8
20260510091421 60 234 2.6 7.8 0.00 0.14 0.00 74 1007.5
20260510090922 60 219 1.7 7.8 0.00 0.14 0.00 75 1007.5
20260510090420 60 230 0.9 2.6 0.00 0.14 0.00 77 1007.4
20260510090039 59 205 0.9 2.6 0.00 0.27 0.27 98 1007.8
20260510085921 59 241 1.7 2.6 0.00 0.14 0.00 78 1007.4
20260510085420 59 161 1.7 2.6 0.00 0.14 0.00 78 1007.3
20260510084921 59 269 0.9 2.6 0.00 0.14 0.00 78 1007.3
20260510084538 58 212 1.7 4.3 0.00 0.27 0.27 99 1007.8
20260510084420 58 230 1.7 2.6 0.00 0.14 0.00 77 1007.3
20260510083921 58 286 1.7 8.7 0.00 0.14 0.00 79 1007.2
20260510083420 58 216 2.6 8.7 0.00 0.14 0.00 80 1007.2
20260510083041 54 178 0.9 2.6 0.00 0.27 0.27 100 1007.6
20260510082921 57 131 1.7 5.2 0.00 0.14 0.00 81 1007.3
20260510082419 57 234 1.7 4.3 0.00 0.14 0.00 80 1007.3
20260510081921 56 155 2.6 4.3 0.00 0.14 0.00 82 1007.2
20260510081536 54 126 1.7 1.7 0.00 0.27 0.27 100 1007.6
20260510081419 56 329 1.7 3.5 0.00 0.14 0.00 84 1007.2
20260510080920 55 107 1.7 3.5 0.00 0.14 0.00 83 1007.1
20260510080644 55 269 0.9 2.6 0.00 0.14 0.00 84 1007.2
20260510080035 54 0 0.0 1.7 0.00 0.27 0.27 100 1007.6
20260510075920 55 196 0.9 1.7 0.00 0.14 0.00 84 1007.1
20260510075419 54 197 0.9 1.7 0.00 0.14 0.00 84 1007.2
20260510075145 54 76 0.9 1.7 0.00 0.14 0.00 84 1007.2
20260510074543 54 59 0.0 1.7 0.00 0.27 0.27 100 1007.7
20260510074418 54 135 0.9 2.6 0.00 0.14 0.00 84 1007.3
20260510073920 54 223 0.9 2.6 0.00 0.14 0.00 84 1007.3
20260510073418 54 24 0.9 1.7 0.00 0.14 0.00 84 1007.2
20260510073040 53 41 0.0 1.7 0.00 0.27 0.27 100 1007.7
20260510072923 54 135 0.9 1.7 0.00 0.14 0.00 85 1007.2
20260510072418 53 178 0.0 1.7 0.00 0.14 0.00 85 1007.1
20260510071919 53 117 0.9 2.6 0.00 0.14 0.00 84 1007.1
20260510071638 53 45 0.0 3.5 0.00 0.14 0.00 84 1007.1
20260510071537 53 265 0.0 1.7 0.00 0.27 0.27 100 1007.5
20260510070919 53 168 1.7 3.5 0.00 0.14 0.00 84 1007.1
20260510070418 53 269 0.9 1.7 0.00 0.14 0.00 85 1007.0
20260510070145 53 135 0.0 2.6 0.00 0.14 0.00 85 1007.0
20260510070038 53 178 0.9 0.9 0.00 0.27 0.27 100 1007.4
20260510065418 53 344 0.9 2.6 0.00 0.14 0.00 85 1006.9
20260510064918 53 178 0.9 2.6 0.00 0.14 0.00 85 1006.8
20260510064538 52 0 0.9 1.7 0.00 0.27 0.27 100 1007.2
20260510064417 53 216 1.7 2.6 0.00 0.14 0.00 85 1006.8
20260510063918 53 178 1.7 2.6 0.00 0.14 0.00 85 1006.7
20260510063417 53 45 1.7 2.6 0.00 0.14 0.00 85 1006.8
20260510063151 53 178 0.9 1.7 0.00 0.14 0.00 85 1006.9
20260510063040 52 0 0.0 1.7 0.00 0.27 0.27 100 1007.2
20260510062417 53 197 0.9 2.6 0.00 0.14 0.00 85 1006.8
20260510061918 53 61 1.7 2.6 0.00 0.14 0.00 85 1006.7
20260510061540 52 126 0.9 1.7 0.00 0.27 0.27 100 1007.1
20260510061417 53 68 0.9 2.6 0.00 0.14 0.00 85 1006.7
20260510060918 53 269 0.9 5.2 0.00 0.14 0.00 85 1006.7
20260510060416 53 89 1.7 5.2 0.00 0.14 0.00 85 1006.6
20260510060041 52 250 0.9 1.7 0.00 0.27 0.27 100 1007.0
20260510055918 52 159 0.9 1.7 0.00 0.14 0.00 85 1006.7
20260510055416 53 152 0.9 1.7 0.00 0.14 0.00 84 1006.6
20260510054917 53 63 0.0 1.7 0.00 0.14 0.00 84 1006.5
20260510054617 53 1 0.9 5.2 0.00 0.14 0.00 84 1006.5
20260510054609 53 1 0.9 1.7 0.00 0.14 0.00 85 1006.5
20260510054535 52 0 0.0 1.7 0.00 0.27 0.27 100 1007.0
20260510053415 53 223 1.7 5.2 0.00 0.14 0.00 84 1006.4
20260510053036 52 265 0.9 1.7 0.00 0.27 0.27 100 1006.8
20260510052917 53 220 1.7 4.3 0.00 0.14 0.00 84 1006.3
20260510052415 53 178 0.9 7.8 0.00 0.14 0.00 84 1006.3
20260510051917 53 152 2.6 7.8 0.00 0.14 0.00 84 1006.3
20260510051537 52 51 0.9 2.6 0.00 0.27 0.27 100 1006.7
20260510051415 53 89 0.9 6.1 0.00 0.14 0.00 84 1006.3
20260510050917 53 63 0.9 6.1 0.00 0.14 0.00 83 1006.3
20260510050416 53 142 2.6 4.3 0.00 0.14 0.00 84 1006.2
20260510050043 52 188 1.7 1.7 0.00 0.27 0.27 100 1006.8
20260510045916 53 178 0.9 3.5 0.00 0.14 0.00 84 1006.2
20260510045633 52 124 1.7 7.8 0.00 0.14 0.00 84 1006.3
20260510044916 52 161 2.6 7.8 0.00 0.14 0.00 85 1006.3
20260510044540 52 0.9 1.7 0.00 0.27 0.27 100 1006.8
20260510044415 52 152 0.9 4.3 0.00 0.14 0.00 85 1006.3
20260510043916 52 223 1.7 4.3 0.00 0.14 0.00 85 1006.3
20260510043414 52 223 0.9 3.5 0.00 0.14 0.00 85 1006.3
20260510043038 52 0.0 0.9 0.00 0.27 0.27 100 1006.8
20260510042915 52 45 1.7 4.3 0.00 0.14 0.00 85 1006.4
20260510042414 52 72 1.7 4.3 0.00 0.14 0.00 86 1006.4
20260510041916 52 89 1.7 3.5 0.00 0.14 0.00 86 1006.5
20260510041546 52 0 0.0 1.7 0.00 0.27 0.27 100 1006.9
20260510041414 52 152 0.9 3.5 0.00 0.14 0.00 86 1006.3
20260510040915 52 157 0.9 1.7 0.00 0.14 0.00 86 1006.4
20260510040413 52 16 0.9 2.6 0.00 0.14 0.00 85 1006.4
20260510040038 52 51 0.0 1.7 0.27 0.27 0.27 100 1006.8
20260510035915 52 248 0.0 2.6 0.00 0.14 0.00 85 1006.4
20260510035413 53 157 0.9 2.6 0.00 0.14 0.00 85 1006.4
20260510034915 53 20 1.7 2.6 0.00 0.14 0.00 86 1006.3
20260510034536 52 0 0.9 2.6 0.27 0.27 0.27 100 1006.9
20260510034413 53 63 1.7 4.3 0.00 0.14 0.00 86 1006.4
20260510033915 52 45 0.9 4.3 0.00 0.14 0.00 86 1006.4
20260510033413 52 171 2.6 4.3 0.00 0.14 0.00 86 1006.4
20260510033041 52 137 0.9 1.7 0.27 0.27 0.27 100 1007.0
20260510032914 52 178 0.9 1.7 0.00 0.14 0.00 87 1006.6
20260510032413 52 178 0.0 1.7 0.00 0.14 0.00 88 1006.5
20260510031914 52 223 0.9 1.7 0.00 0.14 0.00 88 1006.5
20260510031540 52 239 0.9 2.6 0.27 0.27 0.27 100 1007.0
20260510031413 52 147 0.9 1.7 0.00 0.14 0.00 88 1006.5
20260510030914 52 178 0.9 3.5 0.00 0.14 0.00 89 1006.6
20260510030631 52 197 0.9 3.5 0.00 0.14 0.00 89 1006.7
20260510030038 52 153 0.9 3.5 0.00 0.00 0.00 100 1007.0
20260510025913 52 206 0.9 3.5 0.00 0.14 0.00 90 1006.6
20260510025413 52 269 1.7 3.5 0.00 0.14 0.00 90 1006.6
20260510024913 52 63 0.0 0.9 0.00 0.14 0.00 90 1006.6
20260510024543 52 142 0.0 1.7 0.00 0.00 0.00 100 1007.0
20260510024412 52 45 0.0 1.7 0.00 0.14 0.00 92 1006.6
20260510023913 52 206 0.9 1.7 0.00 0.14 0.00 92 1006.6
20260510023721 52 145 0.0 0.9 0.00 0.14 0.00 92 1006.6
20260510023036 52 0 0.0 1.7 0.00 0.00 0.00 100 1007.0
20260510022914 52 234 0.9 1.7 0.00 0.14 0.00 92 1006.5
20260510022412 0 45 0.9 1.7 0.00 0.14 0.00 1006.5
20260510021913 52 269 0.0 0.9 0.00 0.14 0.00 92 1006.5
20260510021539 52 0 0.0 1.7 0.00 0.00 0.00 100 1006.9
20260510021411 52 152 0.9 0.9 0.00 0.14 0.00 92 1006.5
20260510020912 0 45 0.9 2.6 0.00 0.14 0.00 1006.5
20260510020411 52 145 1.7 1.7 0.00 0.14 0.00 92 1006.6
20260510020039 52 309 0.0 5.2 0.00 0.00 0.00 100 1007.0
20260510015913 52 89 0.0 1.7 0.00 0.14 0.00 92 1006.6
20260510015411 0 254 0.9 1.7 0.00 0.14 0.00 1006.5
20260510014912 52 142 1.7 2.6 0.00 0.14 0.00 92 1006.5
20260510014629 52 223 1.7 2.6 0.00 0.14 0.00 92 1006.5
20260510014540 52 0 0.0 1.7 0.00 0.00 0.00 100 1007.0
20260510013912 52 63 0.9 1.7 0.00 0.14 0.00 92 1006.6
20260510013410 52 161 0.9 2.6 0.00 0.14 0.00 92 1006.6
20260510013041 51 44 0.9 2.6 0.00 0.00 0.00 100 1007.0
20260510012912 52 54 0.9 2.6 0.00 0.14 0.00 92 1006.6
20260510012410 52 231 1.7 4.3 0.00 0.14 0.00 92 1006.7
20260510011912 52 107 1.7 4.3 0.00 0.14 0.00 92 1006.7
20260510011538 51 221 0.9 2.6 0.00 0.00 0.00 100 1007.2
20260510011410 52 130 0.9 2.6 0.00 0.14 0.00 93 1006.7
20260510011135 52 69 0.9 2.6 0.00 0.14 0.00 93 1006.9
20260510010410 52 269 0.9 1.7 0.00 0.14 0.00 93 1006.8
20260510010040 51 144 0.0 3.5 0.00 0.00 0.00 100 1007.2
20260510005911 52 89 0.9 1.7 0.00 0.14 0.00 93 1006.9
20260510005627 52 56 0.9 7.8 0.00 0.14 0.00 93 1006.9
20260510004911 52 140 1.7 7.8 0.00 0.14 0.00 93 1006.9
20260510004629 52 45 0.9 1.7 0.00 0.14 0.00 93 1006.9
20260510004536 51 51 0.0 1.7 0.00 0.00 0.00 100 1007.4
20260510004131 52 269 0.9 2.6 0.00 0.14 0.00 93 1006.9
20260510003410 52 269 0.9 2.6 0.00 0.14 0.00 93 1006.9
20260510003051 51 9 0.9 1.7 0.00 0.00 0.00 100 1007.4
20260510002911 52 35 0.9 2.6 0.00 0.14 0.00 93 1006.9
20260510002630 52 213 0.9 2.6 0.00 0.14 0.00 93 1007.0
20260510001911 52 45 0.9 2.6 0.00 0.14 0.00 93 1007.1
20260510001543 51 126 0.0 1.7 0.00 0.00 0.00 100 1007.5
20260510001409 52 178 0.9 1.7 0.00 0.14 0.00 93 1007.1
20260510000910 52 178 0.9 2.6 0.00 0.14 0.00 93 1007.1
20260510000411 52 161 0.9 3.5 0.00 0.14 0.00 93 1007.1
20260510000049 51 165 0.0 0.9 0.00 0.00 0.00 100 1007.6
20260509235910 52 127 0.9 3.5 0.00 0.14 0.00 93 1007.1
20260509235409 52 35 0.0 2.6 0.00 0.14 0.00 93 1007.1
20260509234910 52 1 0.9 2.6 0.00 0.14 0.00 93 1007.2
20260509234546 51 61 0.9 1.7 0.00 0.00 0.00 100 1007.6
20260509234408 52 59 0.9 2.6 0.00 0.14 0.00 93 1007.2
20260509233909 52 152 0.9 1.7 0.00 0.14 0.00 93 1007.2
20260509233408 52 89 0.0 1.7 0.00 0.14 0.00 93 1007.1
20260509233036 51 59 0.9 1.7 0.00 0.00 0.00 100 1007.5
20260509232909 52 135 0.9 1.7 0.00 0.14 0.00 93 1007.1
20260509232408 52 1 0.9 1.7 0.00 0.14 0.00 93 1007.1
20260509231909 52 117 0.9 1.7 0.00 0.14 0.00 93 1007.0
20260509231536 51 151 0.0 1.7 0.00 0.00 0.00 100 1007.4
20260509231407 52 165 0.9 1.7 0.00 0.14 0.00 93 1007.0
20260509231133 52 161 0.9 1.7 0.00 0.14 0.00 93 1007.1
20260509230407 52 45 0.0 1.7 0.00 0.14 0.00 93 1007.1
20260509230128 52 331 0.9 1.7 0.00 0.14 0.00 93 1007.2
20260509230043 52 51 0.0 1.7 0.00 0.00 0.00 100 1007.6